| time (UTC) | temp F | wind direction | speed knots | gust knots | rain 1hr in | rain 24hr in | rain mn in | humidity % | barometer mb |
| 20260906225045 | 88 | 190 | 0.0 | 0.0 | 0.00 | 0.50 | 0.00 | 68 | 1008.0 |
| 20260906224541 | 88 | 190 | 0.0 | 0.0 | 0.00 | 0.50 | 0.00 | 65 | 1008.0 |
| 20260906224042 | 88 | 190 | 0.0 | 0.0 | 0.00 | 0.50 | 0.00 | 64 | 1007.9 |
| 20260906223540 | 89 | 190 | 0.0 | 0.0 | 0.00 | 0.50 | 0.00 | 64 | 1007.9 |
| 20260906223041 | 89 | 190 | 0.0 | 0.0 | 0.00 | 0.50 | 0.00 | 62 | 1007.9 |
| 20260906222540 | 89 | 190 | 0.0 | 0.9 | 0.00 | 0.50 | 0.00 | 60 | 1007.9 |
| 20260906222042 | 90 | 190 | 0.0 | 0.9 | 0.00 | 0.50 | 0.00 | 59 | 1007.9 |
| 20260906221540 | 90 | 190 | 0.0 | 0.0 | 0.00 | 0.50 | 0.00 | 59 | 1008.0 |
| 20260906221039 | 89 | 190 | 0.0 | 0.0 | 0.00 | 0.50 | 0.00 | 60 | 1008.0 |
| 20260906220539 | 89 | 190 | 0.0 | 0.9 | 0.00 | 0.50 | 0.00 | 63 | 1008.0 |
| 20260906220041 | 89 | 190 | 0.0 | 0.9 | 0.00 | 0.50 | 0.00 | 64 | 1007.9 |
| 20260906215541 | 89 | 190 | 0.0 | 0.0 | 0.00 | 0.50 | 0.00 | 63 | 1007.9 |
| 20260906215039 | 90 | 190 | 0.0 | 0.0 | 0.00 | 0.50 | 0.00 | 60 | 1007.8 |
| 20260906214543 | 90 | 190 | 0.0 | 0.9 | 0.00 | 0.50 | 0.00 | 58 | 1007.8 |
| 20260906214038 | 91 | 190 | 0.0 | 0.9 | 0.00 | 0.50 | 0.00 | 57 | 1007.8 |
| 20260906213541 | 92 | 190 | 0.0 | 2.6 | 0.00 | 0.50 | 0.00 | 55 | 1007.7 |
| 20260906213038 | 94 | 190 | 0.0 | 4.3 | 0.00 | 0.50 | 0.00 | 50 | 1007.7 |
| 20260906212537 | 94 | 188 | 1.7 | 4.3 | 0.00 | 0.50 | 0.00 | 52 | 1007.6 |
| 20260906212040 | 93 | 189 | 0.9 | 3.5 | 0.00 | 0.50 | 0.00 | 55 | 1007.6 |
| 20260906211537 | 91 | 165 | 0.9 | 3.5 | 0.00 | 0.50 | 0.00 | 53 | 1007.5 |
| 20260906211036 | 91 | 8 | 0.0 | 1.7 | 0.00 | 0.50 | 0.00 | 58 | 1007.4 |
| 20260906210536 | 91 | 8 | 0.0 | 1.7 | 0.00 | 0.50 | 0.00 | 60 | 1007.2 |
| 20260906210043 | 91 | 8 | 0.0 | 1.7 | 0.00 | 0.50 | 0.00 | 58 | 1007.1 |
| 20260906205536 | 91 | 8 | 0.0 | 3.5 | 0.00 | 0.50 | 0.00 | 58 | 1007.1 |
| 20260906205035 | 91 | 8 | 0.0 | 3.5 | 0.00 | 0.50 | 0.00 | 56 | 1007.1 |
| 20260906204535 | 91 | 359 | 1.7 | 2.6 | 0.00 | 0.50 | 0.00 | 59 | 1007.2 |
| 20260906204034 | 91 | 302 | 0.0 | 2.6 | 0.00 | 0.50 | 0.00 | 59 | 1007.3 |
| 20260906203533 | 91 | 302 | 0.0 | 2.6 | 0.00 | 0.50 | 0.00 | 58 | 1007.5 |
| 20260906203036 | 91 | 198 | 0.0 | 1.7 | 0.00 | 0.50 | 0.00 | 58 | 1007.6 |
| 20260906202531 | 91 | 148 | 0.0 | 0.0 | 0.00 | 0.50 | 0.00 | 59 | 1007.7 |
| 20260906202030 | 91 | 148 | 0.0 | 0.0 | 0.00 | 0.50 | 0.00 | 58 | 1007.8 |
| 20260906201540 | 91 | 144 | 0.0 | 0.0 | 0.00 | 0.50 | 0.00 | 59 | 1007.9 |
| 20260906201029 | 91 | 144 | 0.0 | 0.0 | 0.00 | 0.50 | 0.00 | 57 | 1008.0 |
| 20260906200527 | 91 | 144 | 0.0 | 1.7 | 0.00 | 0.50 | 0.00 | 57 | 1008.1 |
| 20260906200027 | 92 | 144 | 0.0 | 1.7 | 0.00 | 0.50 | 0.00 | 58 | 1008.4 |
| 20260906195528 | 92 | 144 | 0.9 | 1.7 | 0.00 | 0.50 | 0.00 | 57 | 1008.4 |
| 20260906195028 | 91 | 209 | 0.9 | 1.7 | 0.00 | 0.50 | 0.00 | 60 | 1008.6 |
| 20260906194524 | 92 | 209 | 0.0 | 1.7 | 0.00 | 0.50 | 0.00 | 60 | 1008.7 |
| 20260906194025 | 92 | 114 | 0.0 | 1.7 | 0.00 | 0.50 | 0.00 | 57 | 1008.8 |
| 20260906193523 | 91 | 179 | 0.0 | 1.7 | 0.00 | 0.50 | 0.00 | 59 | 1008.8 |
| 20260906193023 | 90 | 259 | 0.9 | 1.7 | 0.00 | 0.50 | 0.00 | 61 | 1008.8 |
| 20260906192521 | 90 | 255 | 0.0 | 0.0 | 0.00 | 0.50 | 0.00 | 61 | 1008.9 |
| 20260906192024 | 89 | 255 | 0.0 | 1.7 | 0.00 | 0.50 | 0.00 | 62 | 1009.0 |
| 20260906191521 | 90 | 255 | 0.9 | 1.7 | 0.00 | 0.50 | 0.00 | 61 | 1009.0 |
| 20260906191022 | 91 | 252 | 0.0 | 2.6 | 0.00 | 0.50 | 0.00 | 60 | 1009.1 |
| 20260906190522 | 91 | 252 | 0.9 | 2.6 | 0.00 | 0.50 | 0.00 | 57 | 1009.3 |
| 20260906190018 | 92 | 256 | 0.0 | 3.5 | 0.00 | 0.50 | 0.00 | 57 | 1009.4 |
| 20260906185517 | 92 | 160 | 0.9 | 3.5 | 0.00 | 0.50 | 0.00 | 57 | 1009.5 |
| 20260906185017 | 92 | 164 | 0.9 | 3.5 | 0.00 | 0.50 | 0.00 | 59 | 1009.6 |
| 20260906184517 | 91 | 319 | 0.9 | 3.5 | 0.00 | 0.50 | 0.00 | 57 | 1009.7 |
| 20260906184016 | 91 | 27 | 0.9 | 2.6 | 0.00 | 0.50 | 0.00 | 60 | 1009.8 |
| 20260906183516 | 91 | 229 | 0.9 | 1.7 | 0.00 | 0.50 | 0.00 | 58 | 1009.8 |
| 20260906183020 | 91 | 210 | 0.0 | 1.7 | 0.00 | 0.50 | 0.00 | 58 | 1009.9 |
| 20260906182515 | 93 | 210 | 0.9 | 3.5 | 0.00 | 0.50 | 0.00 | 61 | 1009.9 |
| 20260906182014 | 94 | 176 | 0.9 | 3.5 | 0.00 | 0.50 | 0.00 | 58 | 1009.9 |
| 20260906181531 | 93 | 198 | 0.0 | 2.6 | 0.00 | 0.50 | 0.00 | 64 | 1009.9 |
| 20260906181013 | 93 | 178 | 0.0 | 3.5 | 0.00 | 0.50 | 0.00 | 59 | 1010.0 |
| 20260906180510 | 92 | 179 | 0.9 | 3.5 | 0.00 | 0.50 | 0.00 | 61 | 1010.0 |
| 20260906180023 | 92 | 83 | 0.0 | 2.6 | 0.00 | 0.50 | 0.00 | 59 | 1010.2 |
| 20260906175509 | 92 | 95 | 0.9 | 2.6 | 0.00 | 0.50 | 0.00 | 59 | 1010.2 |
| 20260906175007 | 91 | 347 | 0.0 | 1.7 | 0.00 | 0.50 | 0.00 | 63 | 1010.4 |
| 20260906174509 | 91 | 347 | 0.9 | 1.7 | 0.00 | 0.50 | 0.00 | 64 | 1010.3 |
| 20260906174007 | 91 | 347 | 0.9 | 1.7 | 0.00 | 0.50 | 0.00 | 62 | 1010.4 |
| 20260906173506 | 90 | 348 | 0.9 | 1.7 | 0.00 | 0.50 | 0.00 | 60 | 1010.5 |
| 20260906173006 | 90 | 346 | 0.0 | 2.6 | 0.00 | 0.50 | 0.00 | 62 | 1010.5 |
| 20260906172505 | 90 | 346 | 0.9 | 2.6 | 0.00 | 0.50 | 0.00 | 63 | 1010.5 |
| 20260906172005 | 90 | 346 | 0.0 | 1.7 | 0.00 | 0.50 | 0.00 | 67 | 1010.5 |
| 20260906171507 | 90 | 345 | 0.9 | 2.6 | 0.00 | 0.50 | 0.00 | 65 | 1010.5 |
| 20260906171004 | 91 | 345 | 0.9 | 2.6 | 0.00 | 0.50 | 0.00 | 64 | 1010.4 |
| 20260906170505 | 90 | 353 | 0.9 | 2.6 | 0.00 | 0.50 | 0.00 | 66 | 1010.5 |
| 20260906170003 | 90 | 357 | 0.9 | 1.7 | 0.00 | 0.50 | 0.00 | 66 | 1010.6 |
| 20260906165504 | 89 | 359 | 0.0 | 1.7 | 0.00 | 0.50 | 0.00 | 65 | 1010.6 |
| 20260906165100 | 89 | 343 | 0.0 | 1.7 | 0.00 | 0.50 | 0.00 | 65 | 1010.7 |
| 20260906164600 | 89 | 345 | 0.9 | 1.7 | 0.00 | 0.50 | 0.00 | 67 | 1010.7 |
| 20260906164058 | 89 | 296 | 0.0 | 0.0 | 0.00 | 0.50 | 0.00 | 68 | 1010.8 |
| 20260906163557 | 89 | 296 | 0.0 | 0.0 | 0.00 | 0.50 | 0.00 | 68 | 1010.8 |
| 20260906163059 | 88 | 261 | 0.0 | 0.0 | 0.00 | 0.50 | 0.00 | 67 | 1010.9 |
| 20260906162558 | 88 | 147 | 0.0 | 0.0 | 0.00 | 0.50 | 0.00 | 69 | 1010.9 |
| 20260906162055 | 88 | 147 | 0.0 | 0.0 | 0.00 | 0.50 | 0.00 | 69 | 1010.9 |
| 20260906161620 | 87 | 23 | 0.0 | 0.0 | 0.00 | 0.50 | 0.00 | 70 | 1011.0 |
| 20260906161054 | 87 | 23 | 0.0 | 0.0 | 0.00 | 0.50 | 0.00 | 72 | 1011.1 |
| 20260906160553 | 87 | 23 | 0.0 | 0.0 | 0.00 | 0.50 | 0.00 | 70 | 1011.1 |
| 20260906160052 | 87 | 23 | 0.0 | 0.0 | 0.00 | 0.50 | 0.00 | 69 | 1011.1 |
| 20260906155553 | 86 | 105 | 0.0 | 0.0 | 0.00 | 0.50 | 0.00 | 74 | 1011.2 |
| 20260906155049 | 86 | 105 | 0.0 | 0.0 | 0.00 | 0.50 | 0.00 | 74 | 1011.3 |
| 20260906154550 | 86 | 105 | 0.0 | 0.0 | 0.00 | 0.50 | 0.00 | 78 | 1011.4 |
| 20260906154051 | 85 | 105 | 0.0 | 0.0 | 0.00 | 0.50 | 0.00 | 74 | 1011.4 |
| 20260906153550 | 86 | 134 | 0.0 | 0.0 | 0.00 | 0.50 | 0.00 | 74 | 1011.4 |
| 20260906153106 | 86 | 135 | 0.0 | 0.0 | 0.00 | 0.50 | 0.00 | 75 | 1011.5 |
| 20260906152547 | 85 | 72 | 0.0 | 0.0 | 0.00 | 0.50 | 0.00 | 76 | 1011.5 |
| 20260906152049 | 85 | 71 | 0.0 | 0.0 | 0.00 | 0.50 | 0.00 | 76 | 1011.5 |
| 20260906151544 | 84 | 72 | 0.0 | 0.0 | 0.00 | 0.50 | 0.00 | 77 | 1011.5 |
| 20260906151043 | 84 | 72 | 0.0 | 0.0 | 0.00 | 0.50 | 0.00 | 79 | 1011.5 |
| 20260906150542 | 84 | 72 | 0.0 | 0.0 | 0.00 | 0.50 | 0.00 | 79 | 1011.5 |
| 20260906150041 | 83 | 72 | 0.0 | 0.0 | 0.00 | 0.50 | 0.00 | 82 | 1011.3 |
| 20260906145542 | 83 | 72 | 0.0 | 0.0 | 0.00 | 0.50 | 0.00 | 84 | 1011.3 |
| 20260906145039 | 81 | 72 | 0.0 | 0.0 | 0.00 | 0.50 | 0.00 | 83 | 1011.2 |
| 20260906144537 | 81 | 72 | 0.0 | 0.0 | 0.00 | 0.50 | 0.00 | 86 | 1011.3 |
| 20260906144036 | 81 | 72 | 0.0 | 0.0 | 0.00 | 0.50 | 0.00 | 86 | 1011.3 |
| 20260906143535 | 80 | 72 | 0.0 | 0.0 | 0.00 | 0.50 | 0.00 | 87 | 1011.3 |
| 20260906143033 | 79 | 72 | 0.0 | 0.0 | 0.00 | 0.50 | 0.00 | 88 | 1011.3 |
| 20260906142534 | 79 | 72 | 0.0 | 0.0 | 0.00 | 0.50 | 0.00 | 89 | 1011.3 |
| 20260906142032 | 79 | 72 | 0.0 | 0.0 | 0.00 | 0.50 | 0.00 | 89 | 1011.3 |
| 20260906141531 | 78 | 72 | 0.0 | 0.0 | 0.00 | 0.50 | 0.00 | 90 | 1011.3 |
| 20260906141029 | 77 | 72 | 0.0 | 0.0 | 0.00 | 0.50 | 0.00 | 91 | 1011.4 |
| 20260906140528 | 77 | 72 | 0.0 | 0.0 | 0.00 | 0.50 | 0.00 | 92 | 1011.5 |
| 20260906140026 | 77 | 72 | 0.0 | 0.0 | 0.00 | 0.50 | 0.00 | 93 | 1011.5 |
| 20260906135525 | 76 | 72 | 0.0 | 0.0 | 0.00 | 0.50 | 0.00 | 94 | 1011.4 |
| 20260906135023 | 76 | 72 | 0.0 | 0.0 | 0.00 | 0.50 | 0.00 | 95 | 1011.4 |
| 20260906134524 | 75 | 72 | 0.0 | 0.0 | 0.00 | 0.50 | 0.00 | 96 | 1011.3 |
| 20260906134022 | 75 | 72 | 0.0 | 0.0 | 0.00 | 0.50 | 0.00 | 96 | 1011.3 |
| 20260906133520 | 75 | 72 | 0.0 | 0.0 | 0.00 | 0.50 | 0.00 | 97 | 1011.3 |
| 20260906133030 | 75 | 72 | 0.0 | 0.0 | 0.00 | 0.50 | 0.00 | 97 | 1011.4 |
| 20260906132523 | 75 | 72 | 0.0 | 0.0 | 0.00 | 0.50 | 0.00 | 97 | 1011.5 |
| 20260906132018 | 74 | 72 | 0.0 | 0.0 | 0.00 | 0.50 | 0.00 | 98 | 1011.6 |
| 20260906131518 | 74 | 72 | 0.0 | 0.0 | 0.00 | 0.50 | 0.00 | 97 | 1011.6 |
| 20260906131016 | 74 | 72 | 0.0 | 0.0 | 0.00 | 0.50 | 0.00 | 98 | 1011.7 |
| 20260906130518 | 73 | 72 | 0.0 | 0.0 | 0.00 | 0.50 | 0.00 | 97 | 1011.7 |
| 20260906130021 | 73 | 72 | 0.0 | 0.0 | 0.00 | 0.50 | 0.00 | 97 | 1011.7 |
| 20260906125514 | 73 | 72 | 0.0 | 0.0 | 0.00 | 0.50 | 0.00 | 97 | 1011.7 |
| 20260906125014 | 73 | 72 | 0.0 | 0.0 | 0.00 | 0.50 | 0.00 | 98 | 1011.7 |
| 20260906124513 | 73 | 72 | 0.0 | 0.0 | 0.00 | 0.50 | 0.00 | 97 | 1011.7 |
| 20260906124013 | 72 | 72 | 0.0 | 0.0 | 0.00 | 0.50 | 0.00 | 97 | 1011.7 |
| 20260906123511 | 72 | 72 | 0.0 | 0.0 | 0.00 | 0.50 | 0.00 | 98 | 1011.5 |
| 20260906123018 | 72 | 72 | 0.0 | 0.0 | 0.00 | 0.50 | 0.00 | 97 | 1011.4 |
| 20260906122510 | 72 | 72 | 0.0 | 0.0 | 0.00 | 0.50 | 0.00 | 97 | 1011.4 |
| 20260906122010 | 72 | 72 | 0.0 | 0.0 | 0.00 | 0.50 | 0.00 | 97 | 1011.4 |
| 20260906121525 | 71 | 72 | 0.0 | 0.0 | 0.00 | 0.50 | 0.00 | 97 | 1011.3 |
| 20260906121009 | 71 | 72 | 0.0 | 0.0 | 0.00 | 0.50 | 0.00 | 97 | 1011.2 |
| 20260906120507 | 71 | 72 | 0.0 | 0.0 | 0.00 | 0.50 | 0.00 | 97 | 1011.2 |
| 20260906120007 | 71 | 72 | 0.0 | 0.0 | 0.00 | 0.50 | 0.00 | 97 | 1011.2 |
| 20260906115507 | 71 | 72 | 0.0 | 0.0 | 0.00 | 0.50 | 0.00 | 97 | 1011.2 |
| 20260906115006 | 71 | 72 | 0.0 | 0.0 | 0.00 | 0.50 | 0.00 | 97 | 1011.2 |
| 20260906114512 | 71 | 72 | 0.0 | 0.0 | 0.00 | 0.50 | 0.00 | 97 | 1011.2 |
| 20260906114005 | 71 | 72 | 0.0 | 0.0 | 0.00 | 0.50 | 0.00 | 97 | 1011.1 |
| 20260906113505 | 71 | 72 | 0.0 | 0.0 | 0.00 | 0.50 | 0.00 | 97 | 1011.3 |
| 20260906113006 | 71 | 72 | 0.0 | 0.0 | 0.00 | 0.50 | 0.00 | 97 | 1011.3 |
| 20260906112505 | 71 | 72 | 0.0 | 0.0 | 0.00 | 0.50 | 0.00 | 97 | 1011.2 |
| 20260906112005 | 71 | 72 | 0.0 | 0.0 | 0.00 | 0.50 | 0.00 | 97 | 1011.2 |
| 20260906111506 | 71 | 72 | 0.0 | 0.0 | 0.00 | 0.50 | 0.00 | 97 | 1011.1 |
| 20260906111004 | 71 | 72 | 0.0 | 0.0 | 0.00 | 0.50 | 0.00 | 97 | 1011.2 |
| 20260906110505 | 71 | 72 | 0.0 | 0.0 | 0.00 | 0.50 | 0.00 | 97 | 1011.1 |
| 20260906110004 | 71 | 72 | 0.0 | 0.0 | 0.00 | 0.50 | 0.00 | 97 | 1011.1 |
| 20260906105504 | 71 | 72 | 0.0 | 0.0 | 0.00 | 0.50 | 0.00 | 97 | 1011.1 |
| 20260906105004 | 71 | 72 | 0.0 | 0.0 | 0.00 | 0.50 | 0.00 | 97 | 1011.1 |
| 20260906104504 | 71 | 72 | 0.0 | 0.0 | 0.00 | 0.50 | 0.00 | 97 | 1011.1 |
| 20260906104004 | 71 | 72 | 0.0 | 0.0 | 0.00 | 0.50 | 0.00 | 97 | 1011.1 |
| 20260906103503 | 71 | 72 | 0.0 | 0.0 | 0.00 | 0.50 | 0.00 | 97 | 1011.0 |
| 20260906103011 | 71 | 72 | 0.0 | 0.0 | 0.00 | 0.50 | 0.00 | 97 | 1011.1 |
| 20260906102502 | 71 | 72 | 0.0 | 0.0 | 0.00 | 0.50 | 0.00 | 97 | 1011.1 |
| 20260906102004 | 71 | 72 | 0.0 | 0.0 | 0.00 | 0.50 | 0.00 | 97 | 1011.0 |
| 20260906101503 | 71 | 72 | 0.0 | 0.0 | 0.00 | 0.50 | 0.00 | 97 | 1011.0 |
| 20260906101002 | 71 | 72 | 0.0 | 0.0 | 0.00 | 0.50 | 0.00 | 97 | 1011.0 |
| 20260906100502 | 71 | 72 | 0.0 | 0.0 | 0.00 | 0.50 | 0.00 | 97 | 1011.0 |
| 20260906100003 | 71 | 72 | 0.0 | 0.0 | 0.00 | 0.50 | 0.00 | 97 | 1010.9 |
| 20260906095502 | 71 | 72 | 0.0 | 0.0 | 0.00 | 0.50 | 0.00 | 97 | 1010.9 |
| 20260906095002 | 72 | 72 | 0.0 | 0.0 | 0.00 | 0.50 | 0.00 | 97 | 1010.9 |
| 20260906094502 | 72 | 72 | 0.0 | 0.0 | 0.00 | 0.50 | 0.00 | 97 | 1010.8 |
| 20260906094005 | 72 | 72 | 0.0 | 0.0 | 0.00 | 0.50 | 0.00 | 97 | 1010.9 |
| 20260906093501 | 71 | 72 | 0.0 | 0.0 | 0.00 | 0.50 | 0.00 | 97 | 1010.9 |
| 20260906093001 | 71 | 72 | 0.0 | 0.0 | 0.00 | 0.50 | 0.00 | 97 | 1010.9 |
| 20260906092502 | 72 | 72 | 0.0 | 0.0 | 0.00 | 0.50 | 0.00 | 97 | 1010.9 |
| 20260906092002 | 72 | 72 | 0.0 | 0.0 | 0.00 | 0.50 | 0.00 | 97 | 1010.9 |
| 20260906091503 | 72 | 72 | 0.0 | 0.0 | 0.00 | 0.50 | 0.00 | 97 | 1010.8 |
| 20260906091100 | 72 | 72 | 0.0 | 0.0 | 0.00 | 0.50 | 0.00 | 97 | 1010.8 |
| 20260906090559 | 71 | 72 | 0.0 | 0.0 | 0.00 | 0.50 | 0.00 | 97 | 1010.8 |
| 20260906090100 | 71 | 72 | 0.0 | 0.0 | 0.00 | 0.50 | 0.00 | 97 | 1010.8 |
| 20260906085559 | 71 | 72 | 0.0 | 0.0 | 0.00 | 0.50 | 0.00 | 97 | 1010.7 |
| 20260906085101 | 71 | 72 | 0.0 | 0.0 | 0.00 | 0.50 | 0.00 | 97 | 1010.6 |
| 20260906084600 | 71 | 72 | 0.0 | 0.0 | 0.00 | 0.50 | 0.00 | 97 | 1010.7 |
| 20260906084100 | 72 | 72 | 0.0 | 0.0 | 0.00 | 0.50 | 0.00 | 97 | 1010.6 |
| 20260906083559 | 72 | 72 | 0.0 | 0.0 | 0.00 | 0.50 | 0.00 | 97 | 1010.4 |
| 20260906083104 | 72 | 72 | 0.0 | 0.0 | 0.00 | 0.50 | 0.00 | 97 | 1010.4 |
| 20260906082602 | 72 | 72 | 0.0 | 0.0 | 0.00 | 0.50 | 0.00 | 97 | 1010.5 |
| 20260906082059 | 72 | 72 | 0.0 | 0.0 | 0.00 | 0.50 | 0.00 | 97 | 1010.5 |
| 20260906081558 | 72 | 72 | 0.0 | 0.0 | 0.00 | 0.50 | 0.00 | 97 | 1010.5 |
| 20260906081058 | 72 | 72 | 0.0 | 0.0 | 0.00 | 0.50 | 0.00 | 97 | 1010.5 |
| 20260906080558 | 72 | 72 | 0.0 | 0.0 | 0.00 | 0.50 | 0.00 | 97 | 1010.4 |
| 20260906080056 | 72 | 72 | 0.0 | 0.0 | 0.00 | 0.50 | 0.00 | 97 | 1010.4 |
| 20260906075556 | 72 | 72 | 0.0 | 0.0 | 0.00 | 0.50 | 0.00 | 97 | 1010.5 |
| 20260906075056 | 72 | 72 | 0.0 | 0.0 | 0.00 | 0.50 | 0.00 | 97 | 1010.6 |
| 20260906074555 | 72 | 72 | 0.0 | 0.0 | 0.00 | 0.50 | 0.00 | 97 | 1010.6 |
| 20260906074054 | 72 | 72 | 0.0 | 0.0 | 0.00 | 0.50 | 0.00 | 97 | 1010.6 |
| 20260906073559 | 72 | 72 | 0.0 | 0.0 | 0.00 | 0.50 | 0.00 | 97 | 1010.7 |
| 20260906073055 | 72 | 72 | 0.0 | 0.0 | 0.00 | 0.50 | 0.00 | 97 | 1010.6 |
| 20260906072554 | 72 | 72 | 0.0 | 0.0 | 0.00 | 0.50 | 0.00 | 97 | 1010.6 |
| 20260906072054 | 72 | 72 | 0.0 | 0.0 | 0.00 | 0.50 | 0.00 | 97 | 1010.7 |
| 20260906071554 | 72 | 72 | 0.0 | 0.0 | 0.00 | 0.50 | 0.00 | 97 | 1010.8 |
| 20260906071053 | 72 | 72 | 0.0 | 0.0 | 0.00 | 0.50 | 0.00 | 97 | 1010.8 |
| 20260906070553 | 72 | 72 | 0.0 | 0.0 | 0.00 | 0.50 | 0.00 | 97 | 1010.8 |
| 20260906070053 | 72 | 72 | 0.0 | 0.0 | 0.00 | 0.50 | 0.00 | 97 | 1010.7 |
| 20260906065553 | 72 | 72 | 0.0 | 0.0 | 0.00 | 0.50 | 0.00 | 97 | 1010.7 |
| 20260906065052 | 72 | 72 | 0.0 | 0.0 | 0.00 | 0.50 | 0.00 | 97 | 1010.8 |
| 20260906064552 | 72 | 72 | 0.0 | 0.0 | 0.00 | 0.50 | 0.00 | 97 | 1010.9 |
| 20260906064053 | 72 | 72 | 0.0 | 0.0 | 0.00 | 0.50 | 0.00 | 97 | 1010.9 |
| 20260906063551 | 72 | 72 | 0.0 | 0.0 | 0.00 | 0.50 | 0.00 | 97 | 1010.9 |
| 20260906063051 | 72 | 72 | 0.0 | 0.0 | 0.00 | 0.50 | 0.00 | 97 | 1010.9 |
| 20260906062552 | 72 | 72 | 0.0 | 0.0 | 0.00 | 0.50 | 0.00 | 97 | 1010.9 |
| 20260906062050 | 72 | 72 | 0.0 | 0.0 | 0.00 | 0.50 | 0.00 | 97 | 1010.9 |
| 20260906061551 | 72 | 72 | 0.0 | 0.0 | 0.00 | 0.50 | 0.00 | 97 | 1011.0 |
| 20260906061049 | 72 | 72 | 0.0 | 0.0 | 0.00 | 0.50 | 0.00 | 97 | 1011.1 |
| 20260906060549 | 72 | 72 | 0.0 | 0.0 | 0.00 | 0.50 | 0.00 | 97 | 1011.2 |
| 20260906060104 | 72 | 72 | 0.0 | 0.0 | 0.00 | 0.50 | 0.00 | 97 | 1011.1 |
| 20260906055552 | 72 | 72 | 0.0 | 0.0 | 0.00 | 0.50 | 0.00 | 96 | 1011.1 |
| 20260906055049 | 72 | 72 | 0.0 | 0.0 | 0.00 | 0.50 | 0.00 | 96 | 1011.0 |
| 20260906054553 | 72 | 72 | 0.0 | 0.0 | 0.00 | 0.50 | 0.00 | 96 | 1011.0 |
| 20260906054050 | 72 | 72 | 0.0 | 0.0 | 0.00 | 0.50 | 0.00 | 96 | 1011.1 |
| 20260906053547 | 72 | 72 | 0.0 | 0.0 | 0.00 | 0.50 | 0.00 | 96 | 1011.1 |
| 20260906053049 | 72 | 72 | 0.0 | 0.0 | 0.00 | 0.50 | 0.00 | 96 | 1011.1 |
| 20260906052547 | 72 | 72 | 0.0 | 0.0 | 0.00 | 0.50 | 0.00 | 96 | 1011.1 |
| 20260906052048 | 72 | 72 | 0.0 | 0.0 | 0.00 | 0.50 | 0.00 | 96 | 1011.1 |
| 20260906051548 | 72 | 72 | 0.0 | 0.0 | 0.00 | 0.50 | 0.00 | 96 | 1011.1 |
| 20260906051050 | 72 | 72 | 0.0 | 0.0 | 0.00 | 0.50 | 0.00 | 96 | 1011.1 |
| 20260906050548 | 72 | 72 | 0.0 | 0.0 | 0.00 | 0.50 | 0.00 | 96 | 1011.1 |
| 20260906050046 | 72 | 72 | 0.0 | 0.0 | 0.00 | 0.50 | 0.00 | 96 | 1011.1 |
| 20260906045545 | 72 | 72 | 0.0 | 0.0 | 0.00 | 0.50 | 0.00 | 96 | 1011.2 |
| 20260906045046 | 72 | 72 | 0.0 | 0.0 | 0.00 | 0.50 | 0.00 | 96 | 1011.2 |
| 20260906044545 | 72 | 72 | 0.0 | 0.0 | 0.00 | 0.50 | 0.00 | 96 | 1011.3 |
| 20260906044046 | 72 | 72 | 0.0 | 0.0 | 0.00 | 0.50 | 0.00 | 96 | 1011.2 |
| 20260906043545 | 72 | 72 | 0.0 | 0.0 | 0.00 | 0.50 | 0.00 | 96 | 1011.2 |
| 20260906043045 | 72 | 72 | 0.0 | 0.0 | 0.00 | 0.50 | 0.00 | 96 | 1011.2 |
| 20260906042544 | 72 | 72 | 0.0 | 0.0 | 0.00 | 0.50 | 0.00 | 96 | 1011.1 |
| 20260906042044 | 72 | 72 | 0.0 | 0.0 | 0.00 | 0.50 | 0.00 | 96 | 1011.0 |
| 20260906041544 | 72 | 72 | 0.0 | 0.0 | 0.00 | 0.50 | 0.00 | 96 | 1011.1 |
| 20260906041043 | 72 | 72 | 0.0 | 0.9 | 0.00 | 0.50 | 0.00 | 96 | 1011.0 |
| 20260906040542 | 72 | 72 | 0.0 | 0.9 | 0.00 | 0.50 | 0.00 | 96 | 1011.1 |
| 20260906040042 | 72 | 72 | 0.0 | 0.9 | 0.00 | 0.50 | 0.00 | 96 | 1011.1 |
| 20260906035543 | 72 | 72 | 0.0 | 0.9 | 0.00 | 0.50 | 0.50 | 96 | 1011.1 |
| 20260906035041 | 72 | 72 | 0.0 | 0.9 | 0.00 | 0.50 | 0.50 | 96 | 1011.0 |
| 20260906034554 | 72 | 72 | 0.0 | 0.9 | 0.00 | 0.50 | 0.50 | 96 | 1011.0 |
| 20260906034045 | 72 | 72 | 0.0 | 0.9 | 0.00 | 0.50 | 0.50 | 96 | 1011.1 |
| 20260906033541 | 72 | 72 | 0.0 | 0.9 | 0.00 | 0.50 | 0.50 | 96 | 1011.1 |
| 20260906033044 | 72 | 72 | 0.0 | 0.9 | 0.00 | 0.50 | 0.50 | 96 | 1011.1 |
| 20260906032540 | 72 | 72 | 0.0 | 0.9 | 0.00 | 0.50 | 0.50 | 96 | 1011.2 |
| 20260906032041 | 72 | 72 | 0.0 | 0.9 | 0.00 | 0.50 | 0.50 | 96 | 1011.3 |
| 20260906031541 | 72 | 72 | 0.0 | 2.6 | 0.00 | 0.50 | 0.50 | 96 | 1011.3 |
| 20260906031040 | 73 | 72 | 0.0 | 2.6 | 0.00 | 0.50 | 0.50 | 96 | 1011.4 |
| 20260906030540 | 73 | 194 | 0.0 | 0.9 | 0.00 | 0.50 | 0.50 | 96 | 1011.7 |
| 20260906030042 | 72 | 194 | 0.0 | 0.9 | 0.00 | 0.50 | 0.50 | 96 | 1011.7 |
| 20260906025539 | 73 | 194 | 0.0 | 0.9 | 0.00 | 0.50 | 0.50 | 96 | 1011.8 |
| 20260906025043 | 72 | 194 | 0.0 | 0.9 | 0.00 | 0.50 | 0.50 | 95 | 1011.9 |
| 20260906024540 | 72 | 194 | 0.0 | 0.9 | 0.00 | 0.50 | 0.50 | 95 | 1011.8 |
| 20260906024039 | 73 | 194 | 0.0 | 0.9 | 0.00 | 0.50 | 0.50 | 95 | 1011.8 |
| 20260906023539 | 73 | 194 | 0.0 | 0.9 | 0.00 | 0.50 | 0.50 | 95 | 1011.8 |
| 20260906023038 | 73 | 194 | 0.0 | 0.0 | 0.00 | 0.50 | 0.50 | 95 | 1011.6 |
| 20260906022539 | 73 | 194 | 0.0 | 0.0 | 0.00 | 0.50 | 0.50 | 95 | 1011.7 |
| 20260906022039 | 73 | 194 | 0.0 | 0.9 | 0.00 | 0.50 | 0.50 | 95 | 1011.8 |
| 20260906021542 | 72 | 194 | 0.0 | 0.9 | 0.00 | 0.50 | 0.50 | 95 | 1011.7 |
| 20260906021037 | 72 | 194 | 0.0 | 0.9 | 0.00 | 0.50 | 0.50 | 95 | 1011.7 |
| 20260906020538 | 72 | 194 | 0.0 | 0.9 | 0.00 | 0.50 | 0.50 | 95 | 1011.7 |
| 20260906020038 | 72 | 194 | 0.0 | 0.9 | 0.00 | 0.50 | 0.50 | 95 | 1011.8 |
| 20260906015537 | 72 | 194 | 0.0 | 2.6 | 0.00 | 0.50 | 0.50 | 95 | 1011.6 |
| 20260906015037 | 72 | 194 | 0.0 | 2.6 | 0.00 | 0.50 | 0.50 | 94 | 1011.6 |
| 20260906014546 | 72 | 234 | 0.0 | 0.0 | 0.00 | 0.50 | 0.50 | 95 | 1011.7 |
| 20260906014037 | 72 | 234 | 0.0 | 0.0 | 0.00 | 0.50 | 0.50 | 95 | 1011.7 |
| 20260906013539 | 72 | 234 | 0.0 | 0.0 | 0.00 | 0.50 | 0.50 | 95 | 1011.7 |
| 20260906013038 | 72 | 234 | 0.0 | 0.0 | 0.00 | 0.50 | 0.50 | 95 | 1011.7 |
| 20260906012536 | 72 | 234 | 0.0 | 0.0 | 0.00 | 0.50 | 0.50 | 95 | 1011.5 |
| 20260906012038 | 72 | 234 | 0.0 | 0.0 | 0.00 | 0.50 | 0.50 | 94 | 1011.8 |
| 20260906011537 | 72 | 234 | 0.0 | 0.0 | 0.00 | 0.50 | 0.50 | 95 | 1011.7 |
| 20260906011036 | 72 | 234 | 0.0 | 0.0 | 0.00 | 0.50 | 0.50 | 95 | 1011.5 |
| 20260906010536 | 72 | 234 | 0.0 | 0.0 | 0.00 | 0.50 | 0.50 | 94 | 1011.3 |
| 20260906010040 | 72 | 234 | 0.0 | 0.0 | 0.00 | 0.50 | 0.50 | 94 | 1011.2 |
| 20260906005535 | 72 | 234 | 0.0 | 0.0 | 0.01 | 0.50 | 0.50 | 94 | 1010.9 |
| 20260906005038 | 72 | 234 | 0.0 | 0.9 | 0.03 | 0.50 | 0.50 | 94 | 1010.6 |
| 20260906004536 | 72 | 234 | 0.0 | 0.9 | 0.09 | 0.50 | 0.50 | 94 | 1010.7 |
| 20260906004035 | 72 | 234 | 0.0 | 0.9 | 0.14 | 0.50 | 0.50 | 93 | 1010.7 |
| 20260906003535 | 72 | 234 | 0.0 | 1.7 | 0.32 | 0.50 | 0.50 | 93 | 1010.6 |
| 20260906003034 | 72 | 234 | 0.0 | 1.7 | 0.49 | 0.50 | 0.50 | 93 | 1010.6 |
| 20260906002533 | 72 | 238 | 0.0 | 1.7 | 0.50 | 0.50 | 0.50 | 92 | 1010.7 |
| 20260906002033 | 73 | 238 | 0.0 | 2.6 | 0.50 | 0.50 | 0.50 | 92 | 1010.5 |
| 20260906001547 | 73 | 269 | 0.9 | 3.5 | 0.50 | 0.50 | 0.50 | 91 | 1010.4 |
| 20260906001031 | 73 | 207 | 0.9 | 4.3 | 0.50 | 0.50 | 0.50 | 91 | 1010.0 |
| 20260906000531 | 73 | 175 | 0.0 | 4.3 | 0.50 | 0.50 | 0.50 | 91 | 1010.4 |
| 20260906000035 | 74 | 177 | 0.0 | 6.1 | 0.50 | 0.50 | 0.50 | 91 | 1010.3 |
| 20260905235531 | 74 | 182 | 2.6 | 6.1 | 0.49 | 0.49 | 0.49 | 90 | 1010.4 |
| 20260905235031 | 74 | 58 | 1.7 | 6.1 | 0.46 | 0.46 | 0.46 | 88 | 1011.1 |
| 20260905234531 | 75 | 212 | 2.6 | 6.1 | 0.41 | 0.41 | 0.41 | 88 | 1011.3 |
| 20260905234031 | 76 | 183 | 1.7 | 5.2 | 0.33 | 0.33 | 0.33 | 85 | 1010.6 |
| 20260905233531 | 79 | 345 | 0.9 | 3.5 | 0.15 | 0.15 | 0.15 | 82 | 1011.0 |
| 20260905233032 | 82 | 349 | 0.9 | 6.1 | 0.00 | 0.00 | 0.00 | 75 | 1011.3 |
| 20260905232530 | 85 | 311 | 1.7 | 7.8 | 0.00 | 0.00 | 0.00 | 67 | 1011.0 |
| 20260905232030 | 87 | 344 | 2.6 | 6.1 | 0.00 | 0.00 | 0.00 | 68 | 1010.5 |
| 20260905231530 | 88 | 313 | 1.7 | 6.1 | 0.00 | 0.00 | 0.00 | 70 | 1009.6 |
| 20260905231031 | 88 | 231 | 1.7 | 7.0 | 0.00 | 0.00 | 0.00 | 70 | 1009.2 |
| 20260905230529 | 88 | 240 | 2.6 | 7.0 | 0.00 | 0.00 | 0.00 | 70 | 1009.0 |
| 20260905230034 | 88 | 183 | 2.6 | 7.0 | 0.00 | 0.00 | 0.00 | 70 | 1009.0 |
| 20260905225535 | 89 | 240 | 3.5 | 7.8 | 0.00 | 0.00 | 0.00 | 70 | 1009.3 |